This is the latest recevied weather packets stored in our database for station/object VE3EP-1. If no packets are shown the sender has not sent any weather packets the latest 10 day(s).
| Time | Temp. | Humidity | Pressure | Rain* | Wind** | Luminosity | Snow |
|---|---|---|---|---|---|---|---|
| 1788108849 | 20.56° C | 83% | 1021.7 hPa | 0 mm | - | - | - |
| 1788108248 | 20.56° C | 82% | 1021.6 hPa | 0 mm | - | - | - |
| 1788107647 | 21.11° C | 82% | 1021.6 hPa | 0 mm | - | - | - |
| 1788107047 | 21.11° C | 83% | 1021.5 hPa | 0 mm | - | - | - |
| 1788106447 | 21.11° C | 82% | 1021.6 hPa | 0 mm | - | - | - |
| 1788105848 | 21.11° C | 81% | 1021.6 hPa | 0 mm | - | - | - |
| 1788105247 | 21.67° C | 81% | 1021.8 hPa | 0 mm | - | - | - |
| 1788104648 | 21.67° C | 79% | 1021.8 hPa | 0 mm | - | - | - |
| 1788104047 | 21.11° C | 81% | 1021.8 hPa | 0 mm | - | - | - |
| 1788103448 | 21.11° C | 83% | 1021.7 hPa | 0 mm | - | - | - |
| 1788102849 | 21.11° C | 81% | 1021.8 hPa | 0 mm | - | - | - |
| 1788102248 | 21.11° C | 83% | 1021.4 hPa | 0 mm | - | - | - |
| 1788101648 | 21.11° C | 81% | 1021.8 hPa | 0 mm | - | - | - |
| 1788101047 | 21.67° C | 81% | 1021.7 hPa | 0 mm | - | - | - |
| 1788100448 | 21.11° C | 82% | 1021.6 hPa | 0 mm | - | - | - |
| 1788099847 | 21.11° C | 81% | 1021.6 hPa | 0 mm | - | - | - |
| 1788099248 | 20.56° C | 82% | 1021.5 hPa | 0 mm | - | - | - |
| 1788098648 | 20.56° C | 84% | 1021.5 hPa | 0 mm | - | - | - |
| 1788098047 | 20.56° C | 83% | 1021.4 hPa | 0 mm | - | - | - |
| 1788097447 | 21.11° C | 82% | 1021.3 hPa | 0 mm | - | - | - |
| 1788096846 | 21.11° C | 85% | 1021.3 hPa | 0 mm | - | - | - |
| 1788096247 | 20.56° C | 87% | 1021.5 hPa | 0 mm | - | - | - |
| 1788095646 | 20° C | 87% | 1021.5 hPa | 0 mm | - | - | - |
| 1788095046 | 20° C | 89% | 1021.5 hPa | 0 mm | - | - | - |
| 1788094446 | 20° C | 87% | 1021.6 hPa | 0 mm | - | - | - |
* Rain latest hour (hover to see other rain measurements)
** Current wind speed in m/s (hover to see current wind gust speed)